Location: Civry
(47.2902°N, 4.6156°E)
Time: 09:32:27
(UTC+00:00)

Cosmos 1703 - Pass Details

Date: 09 April 2020
Orbit: 523 x 541 km, 82.5° (Epoch: 06 June)

Event Time Altitude Azimuth Distance (km) Brightness Sun altitude
Rises 18:57:51 0° 352° (N) 2,708 7.2 -6.5°
Reaches altitude 10° 19:00:01 10° 355° (N) 1,813 6.3 -6.9°
Maximum altitude 19:04:00 69° 79° (E) 585 3.3 -7.5°
Drops below altitude 10° 19:07:57 10° 164° (SSE) 1,802 5.6 -8.1°
Sets 19:10:06 0° 166° (SSE) 2,689 6.5 -8.5°
